[[{"header":{"parameterUnit":"m.s-1","parameterCategory":1,"la1":30.2992,"la2":30.254,"lo1":-89.0895,"lo2":-89.0443,"dy":0.0025,"dx":0.0025,"nx":19,"ny":19,"refTime":"2026-05-19T03:00:00:Z","depth":0,"parameterNumber":2,"parameterNumberName":"U-component_of_WINDS"},"data":[0,0,0,-0.1707,-0.1706,-0.1637,-0.1637,-0.1563,-0.1563,0,0,0,0,0,0,0,0,0,0,0,-0.1735,-0.1735,-0.1708,-0.1706,-0.1638,-0.1637,-0.1563,-0.1563,0,0,0,0,0,0,0,0,0,0,0,-0.1736,-0.1735,-0.1735,-0.1706,-0.1638,-0.1637,-0.1564,-0.1611,0,0,0,0,0,0,0,0,0,0,-0.1675,-0.1708,-0.1735,-0.1735,-0.1706,-0.1638,-0.1637,-0.1613,-0.1608,-0.16,0,-0.1595,0,-0.1578,-0.1559,-0.1558,0,0,0,-0.1701,-0.1712,-0.1687,-0.1735,-0.1705,-0.1638,-0.1667,-0.161,-0.1604,-0.1594,-0.1593,-0.159,-0.1576,-0.1558,-0.1558,-0.1531,-0.1531,0,0,-0.1704,-0.1727,-0.1691,-0.1683,-0.1694,-0.1669,-0.1665,-0.1606,-0.1608,-0.1593,-0.1588,-0.1575,-0.1558,-0.1557,-0.1531,-0.1531,0,0,0,-0.1719,-0.173,-0.1706,-0.1687,-0.1673,-0.1667,-0.1662,-0.161,-0.1601,-0.1588,-0.1574,-0.1558,-0.1557,-0.1531,-0.1531,-0.156,0,0,0,-0.1721,-0.1739,-0.1708,-0.1721,-0.1675,-0.1641,-0.1668,-0.1605,-0.1597,-0.1575,-0.1557,-0.1556,-0.1531,-0.1531,-0.1559,-0.157,0,0,0,-0.1737,-0.174,-0.1733,-0.1723,-0.1694,-0.1641,-0.1628,-0.1602,-0.1589,-0.1558,-0.1556,-0.153,-0.1531,-0.1558,-0.1568,-0.157,0,0,0,-0.1762,-0.176,-0.1734,-0.1727,-0.1695,-0.1659,-0.1628,-0.16,-0.1577,-0.1557,-0.1531,-0.1531,-0.1557,-0.1567,-0.1569,-0.1577,-0.1581,0,0,-0.1772,-0.1762,-0.1756,-0.1731,-0.1706,-0.1668,-0.1647,-0.1605,-0.1581,-0.1549,-0.1548,-0.1559,-0.1568,-0.157,-0.16,-0.1604,0,0,0,-0.1767,-0.1763,-0.1752,-0.173,-0.1697,-0.167,-0.1628,-0.1612,-0.1584,-0.1569,-0.1559,-0.1564,-0.1564,-0.1567,-0.157,-0.1569,-0.1533,-0.1533,-0.1533,-0.1816,-0.1785,-0.1773,-0.1735,-0.1714,-0.1671,-0.1652,-0.1623,-0.1598,-0.1597,-0.1588,-0.1609,-0.1613,-0.1615,-0.1615,-0.1588,-0.1588,-0.1588,-0.1588,-0.183,-0.182,-0.1786,-0.1763,-0.1731,-0.1711,-0.1669,-0.1652,-0.163,-0.1613,-0.1612,-0.1597,-0.1621,-0.1619,-0.159,-0.159,-0.159,-0.1589,-0.1589,-0.1859,-0.1849,-0.1829,-0.1795,-0.1772,-0.1733,-0.1713,-0.1684,-0.1657,-0.1656,-0.1644,-0.1643,-0.164,-0.1652,-0.1652,-0.1652,-0.1652,-0.1652,-0.1652,-0.1898,-0.1875,-0.1861,-0.1825,-0.1808,-0.1781,-0.1738,-0.172,-0.1693,-0.1674,-0.1674,-0.165,-0.1628,-0.1624,-0.1653,-0.1653,-0.1653,-0.1653,-0.1653,-0.1925,-0.1914,-0.1893,-0.1876,-0.1832,-0.1812,-0.1775,-0.1741,-0.1723,-0.1714,-0.169,-0.1678,-0.1666,-0.1663,-0.1659,-0.1696,-0.1696,-0.1696,-0.1696,-0.1951,-0.1942,-0.1914,-0.1888,-0.1859,-0.1823,-0.1801,-0.1767,-0.1731,-0.1718,-0.1708,-0.17,-0.1698,-0.1687,-0.1684,-0.168,-0.1721,-0.1721,-0.1721,-0.1967,-0.1953,-0.194,-0.1903,-0.1866,-0.1836,-0.1814,-0.1787,-0.1743,-0.1721,-0.1707,-0.1706,-0.1693,-0.169,-0.167,-0.1665,-0.1657,0,0]},{"header":{"parameterUnit":"m.s-1","parameterCategory":1,"la1":30.2992,"la2":30.254,"lo1":-89.0895,"lo2":-89.0443,"dy":0.0025,"dx":0.0025,"nx":19,"ny":19,"refTime":"2026-05-19T03:00:00:Z","depth":0,"parameterNumber":3,"parameterNumberName":"V-component_of_WINDS"},"data":[0,0,0,1.8296,1.8296,1.8284,1.8284,1.8278,1.8278,0,0,0,0,0,0,0,0,0,0,0,1.8305,1.8305,1.8296,1.8296,1.8284,1.8284,1.8278,1.8278,0,0,0,0,0,0,0,0,0,0,0,1.8305,1.8305,1.8305,1.8296,1.8284,1.8284,1.8278,1.8284,0,0,0,0,0,0,0,0,0,0,1.8294,1.8307,1.8305,1.8305,1.8296,1.8284,1.8284,1.8284,1.8283,1.8287,0,1.8292,0,1.8285,1.8278,1.8278,0,0,0,1.8292,1.8307,1.8299,1.8305,1.8296,1.8284,1.8288,1.8283,1.8283,1.8287,1.8292,1.8292,1.8285,1.8278,1.8278,1.8316,1.8316,0,0,1.8292,1.8306,1.83,1.8299,1.8302,1.8289,1.8288,1.8283,1.829,1.8292,1.8291,1.8285,1.8278,1.8278,1.8315,1.8316,0,0,0,1.8297,1.8306,1.8298,1.83,1.8297,1.8288,1.8287,1.829,1.8286,1.8291,1.8285,1.8278,1.8278,1.8315,1.8315,1.8347,0,0,0,1.8297,1.8309,1.8299,1.8307,1.8297,1.8293,1.8295,1.8286,1.8285,1.8285,1.8278,1.8278,1.8314,1.8315,1.8345,1.836,0,0,0,1.8304,1.8309,1.831,1.8307,1.8303,1.8293,1.8289,1.8286,1.8282,1.8278,1.8278,1.8314,1.8315,1.8344,1.8358,1.8375,0,0,0,1.8314,1.8337,1.831,1.8334,1.8303,1.8312,1.8289,1.8295,1.8296,1.8278,1.8314,1.8315,1.8343,1.8356,1.8373,1.8393,1.8402,0,0,1.8351,1.8342,1.8355,1.833,1.8348,1.8313,1.8336,1.8324,1.8311,1.8315,1.8315,1.8346,1.8357,1.8375,1.8446,1.8453,0,0,0,1.8371,1.838,1.8382,1.8384,1.8375,1.8369,1.8352,1.8348,1.8351,1.8316,1.8356,1.8362,1.8372,1.8381,1.8387,1.8395,1.832,1.8319,1.8319,1.8442,1.8425,1.8445,1.8427,1.8428,1.8411,1.8411,1.8403,1.8384,1.8394,1.8396,1.8441,1.8452,1.8456,1.8465,1.8403,1.8403,1.8404,1.8404,1.8494,1.8505,1.8481,1.8492,1.8474,1.8483,1.8468,1.8455,1.8461,1.8438,1.8446,1.8423,1.8465,1.8471,1.8406,1.8405,1.8405,1.8405,1.8405,1.854,1.8542,1.8537,1.8538,1.8541,1.8521,1.8529,1.8512,1.8496,1.8503,1.8504,1.8503,1.8501,1.8504,1.8504,1.8505,1.8505,1.8505,1.8505,1.859,1.8582,1.8591,1.8584,1.8584,1.8581,1.8564,1.8563,1.8557,1.8544,1.8544,1.8526,1.8471,1.8459,1.8507,1.8507,1.8507,1.8506,1.8506,1.8652,1.8635,1.8648,1.8648,1.8639,1.8644,1.8622,1.8622,1.8618,1.8623,1.8603,1.8564,1.8554,1.8549,1.8539,1.8605,1.8605,1.8605,1.8605,1.8691,1.8684,1.8695,1.8695,1.8693,1.8675,1.8692,1.8679,1.8663,1.8661,1.8648,1.8632,1.8628,1.8621,1.8614,1.8604,1.8686,1.8686,1.8686,1.8729,1.8721,1.8739,1.8723,1.8715,1.871,1.8725,1.8727,1.8705,1.8689,1.8658,1.8655,1.8629,1.8621,1.8605,1.8595,1.8576,0,0]}]]